Flag for Switzerland Weather past 2 weeks in Renens, Vaud, Switzerland

Now
45 °F

Cool.


Feels Like: 45 °F
Forecast: 42 / 63 °F
Wind: 2 mph from Southwest

Location: Aigle

Current Time: Apr 20, 2015 at 12:59:41 AM

Latest Report: Apr 20, 2015 at 12:00 AM


Visibility: N/A

Pressure: 30.13 "Hg

Humidity: 90%

Dew point: 42 °F

Location of RenensLocation

Historic Weather in Renens — Graph

°F

Renens temperature yesterday

Maximum temperature yesterday: 55 °F (at 6:00 PM)
Minimum temperature yesterday: 42 °F (at 1:00 AM)
Average temperature yesterday: 48 °F

Past Weeks' High & Low Weather Summary

 TemperatureHumidityPressure
High72 °F (Apr 15, 6:00 PM)98% (Apr 18, 6:00 AM)30.55 "Hg (Apr 18, 6:00 AM)
Low30 °F (Apr 7, 7:00 AM)26% (Apr 15, 6:00 PM)29.92 "Hg (Apr 5, 12:00 AM)
Average51 °F64%30.23 "Hg
* Reported Midnight between Apr 4 and Apr 5 — Midnight between Apr 19 and Apr 20, Renens, Weather by CustomWeather, © 2015

Note: Actual official high and low records may vary slightly from our data, if they occured in-between our weather recording intervals... More about our weather records

Advertising

Renens weather history for previous 24 hours

 ConditionsComfort  
Time TempWeatherWind HumidityBarometerVisibility
12:00 AM
Mon, Apr 20
45 °FCool.2 mph90%30.13 "HgN/A
11:00 PM
Sun, Apr 19
45 °FCool.1 mph91%30.12 "HgN/A
10:00 PM50 °FCool.1 mph73%30.09 "HgN/A
9:00 PM52 °FCool.3 mph64%30.06 "HgN/A
8:00 PM53 °FPartly sunny.1 mph64%30.03 "Hg22 mi
7:00 PM53 °FCool.3 mph63%30.01 "HgN/A
6:00 PM55 °FCool.2 mph60%29.99 "HgN/A
5:00 PM53 °FCool.2 mph60%29.99 "HgN/A
4:00 PM52 °FCool.2 mph62%30.00 "HgN/A
3:00 PM52 °FCool.5 mph63%30.01 "HgN/A
2:00 PM50 °FOvercast.8 mph67%30.02 "Hg19 mi
1:00 PM49 °FCool.9 mph67%30.03 "HgN/A
12:00 PM49 °FCool.12 mph69%30.03 "HgN/A
11:00 AM50 °FPartly sunny.10 mph69%30.03 "Hg12 mi
10:00 AM46 °FCool.7 mph68%30.04 "HgN/A
9:00 AM46 °FCool.3 mph70%30.03 "HgN/A
8:00 AM45 °FCool.5 mph74%30.03 "HgN/A
7:00 AM44 °FQuite cool.2 mph76%30.03 "HgN/A
6:00 AM44 °FQuite cool.2 mph77%30.03 "HgN/A
5:00 AM45 °FCool.3 mph70%30.03 "HgN/A
4:00 AM45 °FCool.5 mph75%30.04 "HgN/A
3:00 AM45 °FCool.3 mph78%30.04 "HgN/A
2:00 AM43 °FQuite cool.1 mph93%30.04 "HgN/A
1:00 AM42 °FQuite cool.1 mph88%30.04 "HgN/A
12:00 AM47 °FCool.3 mph72%30.03 "HgN/A
Weather by CustomWeather, © 2015

See weather overviewHow to use our weather pages